Temperature
18 18 18 18 18 19 20 20 21 20 19 17 17 17 15 14 14 12 10 10 11 11 11 12 12 12 12 12 12 13 13 13 13 13 13 13 13 13 13 14 14 14 14 14 14 14 14 14 15
18 17 18 19 18 19 19 20 19 18 17 16 16 16 15 12 11 10 10 10 11 11 11 12 12 12 12 12 12 12 12 12 13 13 13 13 13 13 13 13 13 14 14 14 14 14 14 14 14
17 17 18 19 19 19 19 19 17 16 16 16 15 14 13 11 10 9 10 10 10 10 11 11 11 11 11 11 12 12 12 12 12 12 12 13 13 13 13 13 13 13 13 13 13 14 14 14 14
17 17 19 18 18 19 19 18 16 16 16 16 14 12 10 9 9 9 10 10 10 10 10 11 11 11 11 11 11 11 12 12 12 12 12 12 12 13 13 13 13 13 13 13 13 13 13 14 14
17 18 18 18 18 18 18 17 17 16 16 15 14 12 10 9 9 9 10 10 10 10 10 10 10 11 11 11 11 11 11 11 12 12 12 12 12 12 12 12 12 12 13 13 13 13 13 13 13
17 19 18 18 18 17 17 17 17 16 15 15 14 12 9 9 9 9 9 9 9 9 10 10 10 10 11 11 11 11 11 11 11 11 11 11 12 12 12 12 12 12 12 12 12 12 13 13 13
17 17 18 18 18 17 16 16 16 15 14 14 13 12 9 8 8 9 9 9 9 9 9 9 10 10 10 10 10 10 10 10 11 11 11 11 11 11 11 11 12 12 12 12 12 12 12 12 12
16 17 18 18 18 17 16 15 15 14 13 12 12 11 9 8 8 8 8 8 9 9 9 9 9 9 9 10 10 10 10 10 10 10 10 10 10 11 11 11 11 11 11 11 12 12 12 12 12
16 16 16 17 17 16 15 14 13 13 11 10 9 9 8 8 8 8 8 8 8 8 8 9 9 9 9 9 9 9 9 9 10 10 10 10 10 10 10 10 10 11 11 11 11 11 11 11 11
16 15 15 15 16 15 14 14 12 12 11 10 8 8 8 8 7 7 7 7 7 8 8 8 8 8 8 8 8 9 9 9 9 9 9 9 9 9 9 10 10 10 10 10 10 10 11 11 11
15 14 15 14 14 14 13 13 12 12 11 10 8 7 7 7 7 7 6 6 7 7 7 7 8 8 8 8 8 8 8 8 8 8 8 8 8 9 9 9 9 9 9 9 10 10 10 10 10
14 14 14 13 12 13 13 12 11 11 10 10 9 8 7 7 6 6 6 6 6 6 7 7 7 7 7 7 7 7 8 8 8 8 8 8 8 8 8 8 8 8 9 9 9 9 9 9 9
13 13 12 11 11 11 11 11 10 9 9 9 8 7 7 6 6 6 6 6 6 6 6 7 7 7 7 7 7 7 7 7 7 7 7 7 7 7 7 7 7 8 8 8 8 8 8 9 9
13 12 12 11 11 11 10 10 10 9 8 8 7 7 6 6 6 5 5 5 5 6 6 6 6 6 6 6 6 6 6 6 6 6 6 6 6 6 6 6 7 7 7 7 7 7 8 8 8
12 12 11 11 11 11 10 9 9 9 8 7 7 6 6 5 5 5 5 5 5 5 5 5 6 6 6 6 6 6 6 6 6 6 6 6 6 6 6 6 6 6 6 6 6 7 7 7 7
13 12 11 12 11 10 10 10 9 9 8 7 7 6 5 5 4 4 4 4 4 4 5 5 5 5 5 5 5 5 5 5 5 5 5 5 5 5 5 5 5 5 5 5 6 6 6 6 6
12 12 13 11 11 11 9 9 8 8 8 8 7 6 5 4 4 4 4 4 4 4 4 4 4 4 4 4 4 4 4 4 4 4 4 4 4 4 4 4 4 4 4 5 5 5 5 5 5
12 13 13 12 11 10 9 9 8 8 8 8 7 6 5 4 4 3 3 3 3 3 3 3 4 4 4 4 4 4 4 4 3 3 4 4 4 4 4 3 4 4 4 4 4 4 4 4 4
12 12 12 12 11 10 9 9 9 8 8 7 7 6 5 4 4 3 3 2 3 3 3 3 3 3 3 3 3 3 3 3 3 3 3 3 3 3 3 3 3 3 3 3 3 3 3 3 3
12 12 12 11 10 10 9 9 9 8 8 7 7 6 5 4 4 3 2 2 2 2 2 2 2 2 3 3 3 2 2 2 2 2 2 2 2 2 2 2 2 2 2 2 2 2 2 2 2
11 11 11 10 9 9 8 8 8 8 8 7 7 6 5 4 4 3 2 1 1 2 2 2 2 2 2 2 2 2 2 2 2 2 2 2 2 2 1 1 1 1 1 1 1 1 1 1 1
10 10 9 9 8 8 8 7 8 8 7 6 6 6 5 4 3 2 2 1 1 1 1 1 1 1 1 1 1 1 1 1 1 1 1 1 1 1 1 1 1 1 0 0 0 0 0 0 0
9 9 9 8 8 7 8 7 7 8 6 6 5 5 4 4 3 2 1 1 1 1 1 1 0 0 0 0 0 0 0 0 0 0 0 0 -0 -0 -0 -0 -0 -0 -0 -0 -0 -0 -0 -1 -1
8 8 8 8 7 6 8 7 7 6 7 6 5 5 4 3 3 2 1 1 0 0 0 0 -0 -0 -0 -0 -0 -0 -1 -1 -1 -1 -1 -1 -1 -1 -1 -1 -1 -1 -1 -1 -1 -1 -1 -1 -1
7 7 7 7 6 7 8 7 6 7 6 6 5 4 4 3 2 1 1 0 0 -0 -0 -0 -1 -1 -1 -1 -1 -1 -1 -1 -1 -1 -2 -2 -1 -1 -2 -2 -2 -2 -1 -1 -2 -2 -2 -2 -2
7 7 7 7 7 8 7 6 6 5 5 5 5 4 3 2 1 1 0 0 -0 -1 -1 -1 -1 -1 -1 -1 -2 -2 -2 -2 -2 -2 -2 -2 -2 -2 -2 -2 -2 -2 -2 -2 -2 -2 -2 -2 -2
7 6 7 6 6 6 6 6 5 4 4 4 3 3 2 1 1 0 0 -0 -1 -1 -1 -1 -2 -2 -2 -2 -2 -2 -2 -3 -3 -3 -3 -3 -3 -3 -3 -3 -3 -3 -3 -3 -3 -3 -3 -3 -3
6 6 5 5 5 6 7 7 6 3 3 3 2 2 2 1 0 -0 -0 -1 -1 -1 -2 -2 -2 -2 -2 -3 -3 -3 -3 -3 -3 -3 -4 -4 -3 -4 -4 -4 -3 -3 -3 -3 -3 -3 -3 -3 -3
5 5 5 5 6 5 6 6 5 4 3 3 2 2 1 1 -0 -0 -1 -1 -2 -2 -2 -2 -3 -3 -3 -3 -3 -3 -3 -4 -4 -4 -4 -4 -4 -4 -4 -4 -4 -4 -4 -4 -4 -4 -4 -4 -4
5 5 5 4 4 5 4 4 4 3 3 2 2 1 1 0 -1 -1 -1 -2 -2 -2 -3 -3 -3 -3 -3 -4 -4 -4 -4 -4 -4 -5 -5 -5 -5 -5 -5 -5 -5 -5 -5 -5 -5 -5 -5 -5 -5
Wind_Speed
14 12 6 3 3 5 4 1 2 5 5 6 7 6 7 6 5 6 4 6 7 7 8 9 10 11 12 13 13 14 14 14 14 14 14 14 15 15 14 14 14 15 15 15 15 14 13 13 12
11 7 4 3 4 5 2 3 4 6 7 5 6 6 7 6 7 6 4 6 7 7 8 9 10 11 12 13 13 14 14 14 14 14 14 14 15 15 15 15 14 15 15 15 14 14 13 12 11
8 6 3 3 3 3 1 5 8 8 7 4 4 7 5 5 6 4 4 5 6 7 9 9 10 11 12 13 13 14 14 14 15 14 14 14 15 15 15 15 15 15 14 14 13 13 13 12 11
4 3 4 4 4 1 3 6 8 6 4 4 5 6 5 6 4 4 4 6 7 8 10 10 11 12 12 13 13 14 14 14 15 15 14 14 14 15 15 15 15 15 14 14 13 12 12 12 12
4 4 4 4 3 2 5 7 6 4 4 4 5 4 5 5 8 7 6 7 7 8 10 9 11 12 13 13 14 14 14 14 14 15 15 14 14 15 15 15 15 14 14 14 14 13 11 11 11
3 3 4 5 3 3 3 4 3 4 4 4 3 4 4 6 7 6 6 7 8 8 10 10 11 12 12 13 13 13 14 14 14 14 14 14 14 14 14 14 14 14 14 14 13 13 11 11 10
3 3 5 4 2 3 3 3 2 3 4 3 2 4 5 6 5 5 5 7 8 9 9 10 10 10 11 12 12 13 13 13 13 14 13 13 12 13 13 13 13 13 13 13 13 12 11 10 9
3 4 4 3 2 2 4 4 3 3 4 4 4 3 4 4 4 4 5 5 6 8 9 9 9 10 9 9 10 11 12 12 12 13 13 12 12 12 12 12 12 12 12 12 12 11 10 9 8
3 3 3 2 1 3 6 3 3 4 5 4 4 4 6 9 6 5 5 5 6 7 7 8 9 9 9 8 8 9 10 11 11 12 12 12 11 10 10 11 11 11 11 11 11 11 10 9 8
2 2 1 4 4 3 5 4 3 3 4 2 4 6 8 7 6 5 4 4 5 5 5 7 8 8 8 8 7 7 8 9 10 11 11 10 10 10 10 9 10 11 10 10 10 11 10 9 8
1 0 2 4 6 4 4 3 3 3 2 2 4 7 6 6 5 4 4 4 4 4 5 6 7 8 8 7 7 7 7 8 9 11 11 11 10 10 9 9 9 10 10 9 9 9 9 9 9
0 2 2 3 4 2 2 2 2 0 1 3 6 8 7 6 5 4 4 4 4 5 5 5 7 7 8 8 7 7 7 7 8 9 12 11 8 8 9 8 9 9 9 9 9 8 9 9 9
2 2 2 3 2 2 2 2 1 1 3 4 6 7 6 6 5 4 4 4 4 4 4 4 6 7 7 7 7 7 7 7 8 9 10 11 8 7 8 8 8 9 9 9 8 8 8 8 8
2 3 3 3 3 2 2 2 2 3 5 6 6 6 5 5 5 4 4 4 4 4 4 3 4 6 7 6 6 6 7 7 8 9 9 10 9 8 7 7 7 8 9 9 8 7 6 5 6
3 2 3 5 5 3 2 4 5 6 6 6 6 5 5 4 4 4 3 3 4 3 3 3 4 6 6 6 7 6 7 7 7 8 9 10 9 9 8 7 6 7 9 9 8 7 6 4 4
4 4 4 5 6 5 3 5 4 7 7 7 6 6 5 4 4 4 3 3 3 4 4 3 4 4 5 6 6 6 7 7 7 7 8 9 9 9 8 6 6 8 8 8 5 4 4 4 4
5 5 5 4 6 5 6 5 5 6 7 7 6 6 5 5 4 4 4 4 4 4 4 3 3 3 4 5 5 5 5 6 7 7 8 8 9 9 8 7 8 8 7 6 5 3 4 4 4
3 5 5 4 6 5 7 7 6 7 8 7 7 7 6 6 5 5 4 4 4 4 3 3 3 3 4 4 4 4 4 5 6 7 8 8 8 9 8 7 8 8 5 4 4 4 4 3 4
5 6 8 3 2 4 8 9 8 8 8 8 7 7 7 6 6 6 5 5 5 4 3 3 3 3 3 2 2 3 3 3 4 6 7 8 8 8 8 7 7 7 4 4 4 4 4 3 3
7 8 8 2 1 3 7 10 8 9 10 9 8 7 7 6 6 6 6 5 5 4 3 3 3 2 3 2 2 2 2 2 3 5 6 8 9 9 8 7 6 6 4 5 4 4 3 3 3
7 6 5 4 3 5 5 7 6 6 6 6 6 6 6 7 7 7 6 5 4 3 2 2 2 2 2 2 2 2 2 2 3 3 4 7 8 8 8 7 7 6 5 4 4 4 3 3 3
5 1 3 4 4 4 4 5 5 6 6 7 6 6 6 6 6 6 6 5 4 3 3 2 2 2 2 2 2 2 2 2 2 3 3 5 7 7 7 7 6 6 5 4 4 4 3 3 3
2 3 3 5 5 6 6 5 5 4 5 8 7 7 7 6 6 7 6 5 4 4 3 2 2 2 2 2 2 2 2 2 2 3 3 3 5 7 7 7 6 5 5 5 5 5 4 3 3
1 2 4 4 3 6 7 7 5 4 5 5 7 7 7 6 6 6 6 4 4 3 3 2 2 1 1 2 1 1 2 3 3 4 4 3 3 5 7 7 7 6 5 5 5 5 5 4 4
2 0 1 2 4 6 2 4 5 1 2 5 7 7 7 7 6 6 6 5 4 4 3 2 1 1 1 1 1 1 1 2 2 3 3 4 3 3 4 6 6 6 6 7 6 5 5 4 4
4 2 3 4 5 3 2 6 3 3 4 5 6 7 7 6 5 5 4 4 3 3 3 2 1 1 0 0 0 1 1 1 1 2 3 3 3 3 5 6 6 6 7 7 6 4 5 4 4
2 3 1 2 5 5 6 4 1 3 3 5 6 6 6 5 4 4 4 3 3 2 2 2 1 0 0 1 1 1 1 2 2 3 3 3 3 5 6 6 6 6 7 6 5 4 5 5 4
3 2 1 3 3 6 6 5 3 4 5 5 5 5 4 5 4 3 3 2 2 2 2 1 1 0 0 1 1 2 2 2 2 3 3 4 4 5 5 5 5 6 6 6 5 4 5 5 5
4 3 4 4 4 4 5 3 1 3 5 6 5 5 5 5 3 2 2 2 2 2 2 1 1 0 1 1 1 1 2 2 3 3 3 3 4 4 4 5 5 5 6 5 5 5 5 6 6
2 4 5 4 5 4 4 5 2 3 4 4 4 4 4 4 3 2 2 2 1 2 1 1 1 1 1 1 1 2 2 2 2 3 3 4 4 5 5 5 5 6 6 5 5 6 6 6 6
Wind_Direction
301 275 257 260 246 235 233 153 94 76 60 45 38 49 63 42 39 103 98 34 21 27 32 39 42 42 44 47 48 48 47 45 43 43 43 42 43 43 43 42 43 44 43 44 45 48 50 52 52
294 285 263 243 244 246 211 141 96 67 84 72 45 52 69 69 66 88 59 14 20 35 38 40 48 47 48 50 50 50 49 47 46 45 45 44 44 43 43 43 43 44 44 44 44 46 48 49 48
278 268 258 241 242 275 64 80 89 82 90 84 58 38 49 62 70 66 40 16 34 45 46 46 53 52 52 52 52 52 51 49 47 46 46 46 46 44 43 43 43 43 42 43 45 45 45 44 43
278 239 243 250 253 7 66 83 97 104 84 75 97 85 76 49 48 57 42 42 44 48 51 53 58 56 55 53 52 52 52 50 48 47 46 46 45 45 44 43 41 40 40 41 42 42 42 40 38
242 251 232 233 236 69 55 87 117 121 124 105 100 101 94 79 67 62 48 49 50 45 49 55 57 57 55 52 52 50 50 48 47 46 45 44 43 43 42 41 39 37 36 36 36 37 38 36 33
262 252 242 229 188 123 95 100 125 115 107 102 95 101 103 92 67 53 48 52 54 52 51 53 54 54 53 51 50 49 48 46 46 45 43 42 42 43 41 39 38 36 34 32 31 32 33 32 28
285 270 263 265 179 153 112 87 102 112 104 70 45 102 119 99 72 65 62 58 57 55 52 47 43 50 51 50 49 48 47 45 44 43 40 39 40 41 40 36 35 35 33 29 26 26 28 27 22
309 295 257 250 216 153 109 91 54 51 76 47 29 109 133 118 96 89 82 70 59 54 50 42 38 39 45 49 49 47 45 43 41 40 36 35 35 36 36 32 30 31 30 28 24 21 22 20 13
287 267 263 306 292 113 116 113 61 52 82 62 49 46 94 117 113 99 83 67 57 50 43 38 34 31 32 43 47 45 43 40 40 36 31 30 27 27 31 28 25 25 24 23 20 16 15 11 5
295 264 340 7 10 91 124 118 121 144 124 118 91 85 103 119 122 114 98 77 64 52 41 34 30 25 23 31 39 40 42 40 39 35 27 27 24 21 25 21 19 18 17 15 13 11 10 3 359
341 32 69 40 32 64 120 122 152 180 183 172 153 141 133 132 126 119 105 91 78 67 51 40 32 26 24 24 30 35 37 40 39 32 27 25 24 19 19 19 16 12 13 10 6 3 0 2 2
191 45 38 62 34 52 124 141 152 220 77 68 126 144 145 144 140 130 113 95 85 72 52 42 35 33 27 24 24 32 34 36 38 33 30 25 21 17 11 14 13 10 7 3 1 356 358 359 359
203 150 81 73 65 76 109 158 166 163 117 101 119 133 146 144 136 122 114 107 92 79 62 46 38 36 30 26 24 29 30 31 34 36 33 28 20 13 8 5 8 7 6 360 355 354 355 356 353
117 130 148 160 161 176 168 204 202 186 151 143 142 144 147 142 135 128 121 113 101 89 78 58 45 39 33 32 29 29 28 30 37 35 31 29 23 13 5 1 359 4 2 356 353 350 349 347 348
156 163 191 188 185 165 169 228 207 178 164 161 159 154 146 140 134 135 123 112 104 95 83 69 62 46 36 32 25 29 25 31 38 33 29 29 24 14 3 358 354 359 357 352 351 349 346 344 342
206 212 220 185 174 154 200 247 171 163 170 174 171 164 155 146 139 131 122 110 104 99 86 63 53 49 40 38 27 27 29 28 32 32 29 26 19 13 4 356 352 354 354 350 345 350 342 338 335
208 234 230 181 184 173 211 246 169 171 179 179 177 170 166 157 150 136 131 120 108 101 97 83 60 55 42 38 32 28 35 30 27 30 31 22 14 11 7 356 352 353 351 349 344 348 338 333 333
243 255 260 220 190 205 230 244 205 191 193 190 182 174 171 169 162 146 139 130 117 108 104 93 68 53 50 41 28 20 29 26 25 26 27 20 15 12 7 360 355 352 346 340 338 334 333 328 327
290 283 278 276 176 224 243 253 230 201 201 197 190 182 175 169 154 148 145 136 127 119 106 95 75 55 51 42 26 15 12 10 17 19 21 18 13 11 9 2 354 351 344 336 336 335 331 335 342
267 274 281 299 155 257 268 268 244 206 202 195 189 185 173 162 154 151 148 143 137 130 114 94 81 72 61 41 22 12 9 2 9 8 16 17 11 8 7 6 357 353 348 341 339 340 330 328 348
257 257 280 296 302 254 280 279 230 199 187 179 181 175 167 167 163 156 153 147 135 129 121 103 76 76 65 32 30 28 17 355 4 5 9 7 3 2 2 0 356 352 351 334 332 333 335 320 320
261 302 289 288 294 270 208 280 249 193 188 191 188 175 169 161 152 150 151 151 146 140 124 107 83 73 64 45 48 37 19 360 344 343 342 352 357 358 358 354 351 349 348 339 331 344 333 318 306
272 336 282 264 262 280 236 246 268 175 210 209 188 172 163 158 152 150 151 157 145 128 124 122 104 81 71 62 59 27 9 352 348 348 343 350 354 355 353 350 348 346 345 344 337 329 326 319 307
273 280 258 257 253 261 227 215 265 207 212 179 168 160 154 151 148 145 144 143 132 123 122 127 118 84 73 72 54 23 2 351 348 347 341 344 346 348 350 348 350 345 342 339 331 322 310 305 298
218 246 313 261 226 245 188 210 247 198 114 147 156 148 139 139 144 142 145 146 142 136 131 134 133 89 64 69 49 355 355 344 328 330 331 330 332 333 335 342 340 336 334 329 324 318 301 298 300
214 229 210 243 258 277 245 233 231 93 83 101 118 127 128 131 136 138 143 144 143 140 139 155 162 139 52 24 343 340 356 340 314 320 323 313 310 314 325 331 329 326 324 322 322 315 305 303 300
215 222 288 292 293 277 245 225 193 122 114 120 127 128 136 141 142 138 134 132 133 139 152 164 171 183 350 325 331 323 336 323 314 311 318 311 314 318 325 326 325 323 321 317 314 304 307 305 299
285 307 170 205 253 268 260 232 221 178 180 159 152 150 146 135 129 128 126 130 137 146 145 133 141 176 267 309 313 324 319 307 309 308 308 311 315 320 317 317 319 319 318 314 309 305 305 306 301
192 218 223 239 242 247 279 265 45 150 165 169 167 155 145 141 140 143 146 151 150 135 131 133 155 179 251 290 301 303 294 300 307 300 298 310 313 312 310 310 310 310 309 309 304 302 303 301 300
211 213 193 204 248 237 262 270 38 71 99 120 133 136 130 133 140 149 154 151 150 148 146 152 202 219 244 269 286 280 285 293 299 300 300 308 307 308 309 309 306 306 307 307 302 299 302 299 298
Height
1502 1503 1505 1507 1509 1510 1508 1503 1500 1505 1509 1513 1514 1515 1519 1525 1528 1539 1539 1536 1537 1537 1536 1536 1536 1536 1536 1536 1536 1536 1536 1535 1535 1535 1535 1535 1535 1535 1535 1535 1535 1535 1535 1535 1535 1535 1535 1536 1536
1502 1504 1507 1507 1509 1513 1508 1503 1504 1508 1512 1515 1516 1518 1522 1528 1531 1534 1535 1536 1536 1536 1536 1536 1536 1536 1536 1536 1536 1536 1536 1536 1535 1535 1535 1535 1535 1535 1535 1535 1535 1535 1535 1536 1536 1536 1536 1536 1537
1503 1504 1507 1505 1506 1510 1509 1505 1508 1512 1514 1516 1520 1522 1526 1531 1533 1533 1534 1535 1535 1536 1535 1536 1536 1536 1536 1535 1535 1536 1536 1536 1536 1536 1536 1536 1536 1535 1536 1535 1535 1535 1536 1536 1536 1536 1536 1537 1537
1504 1506 1506 1506 1508 1506 1506 1508 1510 1513 1516 1518 1521 1525 1529 1532 1533 1533 1534 1534 1535 1535 1535 1535 1535 1536 1535 1535 1535 1536 1536 1536 1536 1536 1536 1536 1536 1536 1535 1535 1535 1535 1536 1536 1536 1536 1536 1537 1537
1505 1505 1505 1507 1507 1507 1507 1509 1511 1513 1516 1519 1521 1526 1530 1533 1532 1533 1534 1534 1534 1534 1535 1535 1535 1535 1535 1535 1535 1535 1535 1536 1535 1536 1536 1536 1536 1535 1535 1535 1535 1535 1536 1536 1536 1536 1537 1537 1537
1506 1503 1507 1508 1506 1507 1509 1511 1512 1514 1517 1520 1522 1526 1531 1532 1532 1532 1533 1534 1534 1534 1534 1534 1535 1535 1535 1535 1535 1535 1535 1535 1535 1535 1535 1535 1535 1535 1535 1535 1535 1535 1535 1536 1536 1536 1536 1537 1537
1506 1504 1504 1503 1506 1508 1510 1512 1514 1515 1518 1521 1523 1526 1530 1531 1531 1532 1533 1533 1533 1534 1534 1534 1534 1534 1535 1535 1535 1535 1535 1535 1535 1535 1535 1535 1535 1535 1535 1535 1535 1535 1535 1535 1535 1536 1536 1536 1537
1504 1504 1502 1502 1505 1508 1511 1513 1515 1517 1520 1522 1523 1526 1528 1530 1530 1531 1532 1532 1533 1533 1533 1534 1534 1534 1534 1534 1534 1534 1534 1534 1534 1534 1534 1534 1534 1534 1534 1534 1534 1534 1534 1534 1535 1535 1535 1535 1536
1505 1508 1506 1504 1505 1508 1511 1514 1517 1519 1521 1523 1524 1525 1526 1527 1529 1530 1531 1532 1532 1532 1533 1533 1533 1533 1533 1533 1534 1534 1534 1534 1534 1533 1533 1533 1533 1533 1533 1533 1533 1533 1533 1533 1533 1534 1534 1534 1535
1505 1508 1508 1507 1506 1508 1511 1514 1517 1519 1521 1524 1525 1525 1526 1527 1528 1529 1530 1530 1531 1531 1532 1532 1532 1533 1533 1533 1533 1533 1533 1533 1533 1532 1532 1532 1532 1532 1532 1532 1532 1532 1532 1532 1532 1532 1532 1533 1533
1505 1508 1508 1509 1509 1510 1512 1515 1517 1518 1521 1522 1523 1524 1525 1526 1527 1528 1529 1530 1530 1531 1531 1531 1532 1532 1532 1532 1532 1532 1532 1532 1532 1531 1531 1531 1531 1531 1530 1530 1530 1530 1530 1530 1530 1530 1531 1531 1531
1507 1508 1509 1510 1511 1512 1514 1515 1517 1518 1520 1520 1521 1522 1524 1525 1526 1527 1528 1529 1529 1529 1530 1530 1530 1531 1531 1531 1531 1531 1531 1530 1530 1530 1530 1529 1529 1529 1529 1528 1528 1528 1528 1528 1528 1528 1529 1529 1529
1507 1509 1511 1512 1512 1513 1514 1516 1517 1518 1518 1519 1521 1522 1523 1524 1525 1526 1527 1528 1528 1528 1529 1529 1529 1529 1529 1530 1530 1530 1530 1529 1529 1529 1529 1528 1527 1527 1527 1527 1526 1526 1526 1526 1526 1526 1526 1526 1527
1507 1509 1510 1512 1513 1514 1515 1515 1517 1515 1517 1518 1520 1521 1522 1523 1524 1524 1525 1526 1526 1527 1527 1528 1528 1528 1528 1528 1528 1529 1529 1529 1528 1528 1527 1526 1526 1525 1525 1525 1524 1524 1524 1523 1523 1523 1523 1524 1524
1508 1509 1510 1510 1511 1513 1515 1515 1514 1513 1515 1517 1518 1519 1521 1521 1522 1523 1524 1524 1525 1526 1526 1527 1527 1527 1527 1527 1527 1527 1527 1527 1527 1526 1525 1525 1525 1524 1523 1523 1522 1522 1521 1521 1521 1521 1521 1520 1521
1507 1508 1509 1507 1508 1511 1516 1513 1510 1511 1513 1515 1516 1518 1519 1520 1521 1521 1522 1523 1524 1524 1524 1525 1525 1525 1526 1526 1526 1526 1525 1525 1525 1524 1524 1523 1523 1522 1522 1521 1520 1520 1519 1519 1518 1518 1517 1517 1517
1506 1506 1503 1507 1506 1508 1512 1509 1509 1509 1510 1512 1514 1515 1517 1518 1519 1519 1520 1521 1521 1522 1522 1523 1524 1524 1524 1524 1524 1524 1524 1523 1523 1523 1522 1522 1521 1520 1520 1519 1518 1517 1517 1516 1516 1515 1515 1514 1513
1505 1502 1499 1503 1504 1506 1507 1505 1506 1506 1508 1509 1511 1512 1514 1515 1516 1517 1518 1519 1520 1520 1521 1521 1522 1523 1523 1523 1523 1522 1522 1522 1521 1521 1520 1520 1519 1518 1517 1517 1516 1516 1515 1514 1513 1513 1512 1512 1511
1501 1500 1500 1499 1502 1503 1503 1501 1501 1502 1504 1505 1507 1509 1510 1512 1514 1515 1516 1517 1518 1518 1519 1519 1520 1521 1521 1521 1520 1520 1520 1520 1520 1519 1519 1518 1517 1516 1515 1514 1514 1513 1512 1512 1511 1510 1509 1509 1508
1501 1501 1500 1499 1501 1502 1501 1499 1496 1497 1498 1500 1502 1505 1507 1510 1512 1513 1514 1515 1515 1516 1517 1517 1518 1519 1519 1519 1519 1519 1519 1518 1518 1517 1517 1516 1515 1514 1513 1512 1512 1511 1510 1510 1509 1508 1507 1506 1506
1500 1501 1501 1502 1502 1501 1503 1499 1493 1492 1494 1497 1499 1502 1504 1507 1509 1511 1512 1513 1513 1514 1515 1516 1517 1517 1517 1517 1517 1517 1517 1516 1516 1515 1514 1514 1513 1512 1511 1510 1509 1509 1508 1507 1507 1506 1505 1504 1504
1501 1500 1501 1503 1507 1505 1503 1506 1491 1490 1493 1494 1497 1499 1502 1504 1506 1508 1509 1511 1511 1512 1514 1514 1515 1515 1516 1515 1515 1514 1514 1514 1513 1513 1512 1511 1510 1510 1509 1508 1507 1506 1505 1505 1504 1503 1502 1502 1501
1501 1501 1502 1503 1505 1506 1501 1505 1494 1489 1492 1492 1494 1496 1499 1502 1504 1505 1507 1509 1510 1511 1512 1513 1513 1513 1513 1513 1513 1513 1512 1512 1512 1511 1510 1509 1508 1507 1506 1505 1504 1504 1503 1502 1501 1501 1500 1499 1499
1502 1503 1502 1503 1506 1509 1496 1500 1494 1490 1486 1487 1491 1494 1497 1500 1502 1504 1506 1508 1509 1510 1510 1511 1511 1511 1511 1511 1511 1511 1510 1510 1509 1508 1507 1506 1505 1505 1504 1503 1502 1501 1500 1499 1498 1497 1497 1496 1495
1504 1506 1508 1507 1509 1501 1489 1494 1494 1485 1483 1485 1488 1492 1495 1498 1500 1502 1504 1505 1507 1507 1508 1509 1509 1509 1509 1509 1509 1509 1508 1507 1507 1506 1505 1504 1502 1501 1501 1500 1499 1497 1496 1495 1495 1494 1493 1492 1492
1502 1502 1508 1508 1500 1493 1493 1495 1489 1485 1484 1485 1488 1491 1494 1497 1499 1501 1502 1503 1504 1505 1506 1506 1506 1506 1506 1506 1506 1506 1506 1505 1504 1504 1502 1501 1500 1499 1498 1497 1495 1494 1493 1492 1491 1490 1489 1488 1488
1501 1503 1501 1506 1502 1502 1493 1486 1488 1486 1486 1487 1489 1491 1494 1497 1498 1500 1501 1502 1502 1503 1503 1504 1504 1504 1504 1504 1503 1503 1503 1502 1501 1500 1500 1498 1497 1495 1494 1493 1492 1490 1489 1488 1487 1486 1485 1484 1483
1502 1501 1506 1508 1506 1499 1484 1482 1485 1487 1487 1488 1490 1491 1494 1496 1497 1499 1499 1500 1500 1501 1501 1501 1501 1501 1501 1501 1500 1500 1499 1499 1498 1497 1496 1495 1494 1492 1491 1489 1488 1486 1485 1484 1483 1481 1481 1480 1479
1503 1504 1502 1502 1499 1501 1495 1489 1482 1482 1483 1486 1488 1490 1492 1494 1495 1496 1497 1498 1498 1498 1498 1498 1498 1498 1498 1497 1497 1496 1496 1495 1494 1493 1492 1491 1490 1488 1487 1485 1484 1482 1481 1480 1479 1477 1477 1476 1475
1497 1498 1500 1505 1502 1498 1498 1495 1484 1482 1482 1484 1487 1489 1491 1492 1493 1494 1495 1495 1495 1495 1495 1494 1494 1494 1494 1494 1493 1492 1492 1491 1490 1489 1488 1487 1486 1484 1483 1481 1480 1478 1477 1476 1474 1473 1472 1471 1470